Location: Newark
(0.0000°N, 0.0000°E)
Time: 06:40:44
(UTC+00:00)

Envisat - Visible Passes

Search period start: 18 September 2020 00:00
Search period end: 28 September 2020 00:00
Orbit: 764 x 766 km, 98.1° (Epoch: 17 September)

Date Brightness Start Highest point End Pass type
(mag) Time Alt. Az. Time Alt. Az. Time Alt. Az.
18 Sep 6.0 04:45:17 10° ENE 04:48:26 17° ESE 04:51:35 10° SE visible
18 Sep 6.4 18:56:41 10° WSW 18:58:14 11° WSW 18:59:47 10° W visible
19 Sep 5.0 18:17:03 10° SSW 18:21:34 33° WSW 18:26:05 10° NW visible
20 Sep 4.9 05:09:13 10° NE 05:13:47 34° ESE 05:18:21 10° SSE visible
21 Sep 6.3 04:35:16 10° E 04:37:07 12° ESE 04:38:58 10° SE visible
21 Sep 6.1 18:43:53 10° SW 18:46:55 16° WSW 18:49:56 10° WNW visible
23 Sep 5.5 04:58:21 10° NE 05:02:27 25° ESE 05:06:35 10° SSE visible
24 Sep 5.8 18:31:46 10° SSW 18:35:36 22° WSW 18:39:26 10° NW visible
25 Sep 4.0 05:22:53 10° NNE 05:27:49 53° ESE 05:32:45 10° S visible
26 Sep 6.0 04:47:40 10° ENE 04:51:09 19° ESE 04:54:37 10° SE visible
27 Sep 5.3 18:19:55 10° SSW 18:24:17 29° WSW 18:28:38 10° NW visible
